Regional Weather Roundup
Issued by NWS

Home | Current Version | Previous Version | Text Only | Print | Product List | Glossary Off
Versions: 1 2 3 4 5 6 7 8 9 10 11 12 13 14 15 16 17 18 19 20 21 22 23 24 25 26 27 28 29 30 31 32 33 34 35 36 37 38 39 40 41 42 43 44 45 46 47 48 49 50

000
ASUS43 KBIS 250310
RWRND

NORTH DAKOTA REGIONAL WEATHER ROUNDUP
NATIONAL WEATHER SERVICE BISMARCK ND
900 PM CST SAT JAN 24 2015

NOTE: "FAIR" INDICATES FEW OR NO CLOUDS BELOW 12,000 FEET WITH NO
SIGNIFICANT WEATHER AND/OR OBSTRUCTIONS TO VISIBILITY.


NDZ001>003-009>011-017-250400-
NORTHWEST NORTH DAKOTA

CITY           SKY/WX    TMP DP  RH WIND       PRES   REMARKS
WILLISTON      CLOUDY    38  31  76 NW16      29.89R
MINOT          MIX PCPN  31  29  92 N3        29.78R FOG
MINOT AFB      FRZ RAIN  30  30 100 NE5       29.78R
$$

NDZ018>021-031>035-040>046-250400-
SOUTHWEST NORTH DAKOTA

CITY           SKY/WX    TMP DP  RH WIND       PRES   REMARKS
BISMARCK       LGT SNOW  33  31  92 W7        29.80R FOG
DICKINSON      CLOUDY    38  32  79 NW20G32   29.85R
GARRISON         N/A     35  33  92 NW17      29.78R
HETTINGER ARPT CLOUDY    38  31  76 NW24G33   29.88R
$$

NDZ004>008-012>016-024-026-027-054-250400-
NORTHEAST NORTH DAKOTA

CITY           SKY/WX    TMP DP  RH WIND       PRES   REMARKS
GRAND FORKS    CLOUDY    24  19  81 N13       29.81R WCI  12
GRND FRKS AFB  CLOUDY    21  16  79 N12       29.82R WCI   9
DEVILS LAKE    CLOUDY    19  16  86 N10       29.81R WCI   8
$$

NDZ022-023-025-028>030-036>039-047>053-250400-
SOUTHEAST NORTH DAKOTA

CITY           SKY/WX    TMP DP  RH WIND       PRES   REMARKS
FARGO          LGT SNOW  32  29  88 N14       29.74R FOG
JAMESTOWN      LGT SNOW  27  25  92 N10       29.76R FOG     WCI  17
$$




USA.gov is the U.S. government's official web portal to all federal, state and local government web resources and services.